Location: Clarion
(42.7316°N, 93.7330°W)
Time: 00:59:33
(UTC+00:00)

Spot 2 Rocket - Pass Details

Date: 22 April 2026
Orbit: 752 x 766 km, 98.3° (Epoch: 20 May)

Event Time Altitude Azimuth Distance (km) Brightness Sun altitude
Exits shadow 02:42:42 29° 135° (SE) 1,359 4.2 -17.0°
Maximum altitude 02:45:02 54° 72° (ENE) 916 3.7 -17.3°
Drops below altitude 10° 02:49:55 10° 356° (N) 2,284 6.5 -18.0°
Sets 02:52:15 0° 352° (N) 3,213 7.4 -18.4°
